When you browse on this site, cookies collect data to enhance your experience and personalize the content and advertising you see.
Visit our Privacy Policy to learn more. By continuing to use the site, you agree to this use of cookies and data.
  • In Portugal
  • List of Countries
  • For 7 days
  • Water Temperature
  • Satellite Maps
  • Weather Map
  • Weather Widgets
  • user-avatar
    Login

    Hourly Weather Zandzhan

    Today, 19 December, Wednesday

    Time Temperature Precipitation Wind Pressure Humidity
    00:00 +2°C° 0 mm 1 mps 616 mmHg 88%
    01:00 +1°C° 0 mm 1 mps 616 mmHg 88%
    02:00 +1°C° 0 mm 1 mps 616 mmHg 89%
    03:00 +1°C° 0 mm 1 mps 616 mmHg 89%
    04:00 +1°C° 0 mm 1 mps 617 mmHg 89%
    05:00 +1°C° 0 mm 1 mps 617 mmHg 90%
    06:00 +1°C° 0 mm 1 mps 617 mmHg 90%
    07:00 +1°C° 0 mm 1 mps 617 mmHg 87%
    08:00 +2°C° 0 mm 1 mps 618 mmHg 84%
    09:00 +3°C° 0 mm 1 mps 618 mmHg 81%
    10:00 +4°C° 0 mm 1 mps 618 mmHg 77%
    11:00 +5°C° 0 mm 1 mps 618 mmHg 72%
    12:00 +6°C° 0 mm 1 mps 618 mmHg 68%
    13:00 +6°C° 0 mm 1 mps 617 mmHg 66%
    14:00 +6°C° 0 mm 1 mps 617 mmHg 64%
    15:00 +6°C° 0 mm 1 mps 617 mmHg 63%
    16:00 +5°C° 0 mm 1 mps 617 mmHg 66%
    17:00 +4°C° 0 mm 1 mps 617 mmHg 70%
    18:00 +3°C° 0 mm 1 mps 616 mmHg 74%
    19:00 +3°C° 0 mm 1 mps 616 mmHg 75%
    20:00 +3°C° 0 mm 1 mps 616 mmHg 75%
    21:00 +3°C° 0 mm 1 mps 616 mmHg 76%
    22:00 +3°C° 0 mm 1 mps 616 mmHg 76%
    23:00 +2°C° 0 mm 1 mps 616 mmHg 77%

    Tomorrow, 20 December, Thursday

    Time Temperature Precipitation Wind Pressure Humidity
    00:00 +1°C° 0 mm 2 mps 616 mmHg 77%
    01:00 +1°C° 0 mm 2 mps 616 mmHg 78%
    02:00 +1°C° 0 mm 2 mps 616 mmHg 79%
    03:00 +1°C° 0 mm 2 mps 615 mmHg 80%
    04:00 +1°C° 0 mm 2 mps 615 mmHg 82%
    05:00 +1°C° 0 mm 2 mps 615 mmHg 83%
    06:00 +1°C° 0 mm 2 mps 615 mmHg 84%
    07:00 +1°C° 0 mm 2 mps 615 mmHg 82%
    08:00 +2°C° 0 mm 2 mps 616 mmHg 79%
    09:00 +3°C° 0 mm 2 mps 616 mmHg 76%
    10:00 +4°C° 0.1 mm 2 mps 616 mmHg 73%
    11:00 +3°C° 0.1 mm 3 mps 615 mmHg 69%
    12:00 +4°C° 0.1 mm 3 mps 615 mmHg 66%
    13:00 +4°C° 0.6 mm 2 mps 615 mmHg 70%
    14:00 +4°C° 0.6 mm 2 mps 614 mmHg 73%
    15:00 +4°C° 0.6 mm 2 mps 614 mmHg 77%
    16:00 +3°C° 1 mm 2 mps 614 mmHg 81%
    17:00 +3°C° 1 mm 2 mps 614 mmHg 85%
    18:00 +2°C° 1 mm 2 mps 614 mmHg 89%
    19:00 +2°C° 0.3 mm 2 mps 614 mmHg 90%
    20:00 +2°C° 0.3 mm 2 mps 614 mmHg 91%
    21:00 +2°C° 0.3 mm 2 mps 614 mmHg 91%
    22:00 +2°C° 0.4 mm 2 mps 614 mmHg 92%
    23:00 +2°C° 0.4 mm 2 mps 613 mmHg 93%

    Day after tomorrow, 21 December, Friday

    Time Temperature Precipitation Wind Pressure Humidity
    00:00 +1°C° 0.4 mm 2 mps 613 mmHg 93%
    01:00 +1°C° 0.2 mm 2 mps 614 mmHg 93%
    02:00 +1°C° 0.2 mm 2 mps 614 mmHg 93%
    03:00 -1°C° 0.2 mm 2 mps 614 mmHg 93%
    04:00 -1°C° 0.1 mm 2 mps 614 mmHg 93%
    05:00 +1°C° 0.1 mm 1 mps 614 mmHg 93%
    06:00 0°C° 0.1 mm 1 mps 614 mmHg 94%
    07:00 +1°C° 0.1 mm 1 mps 614 mmHg 92%
    08:00 +1°C° 0.1 mm 1 mps 615 mmHg 91%
    09:00 +2°C° 0.1 mm 1 mps 615 mmHg 90%
    10:00 +2°C° 0.2 mm 1 mps 615 mmHg 89%
    11:00 +3°C° 0.2 mm 1 mps 615 mmHg 88%
    12:00 +3°C° 0.2 mm 1 mps 615 mmHg 86%
    13:00 +3°C° 0.2 mm 1 mps 615 mmHg 86%
    14:00 +3°C° 0.2 mm 1 mps 615 mmHg 85%
    15:00 +3°C° 0.2 mm 1 mps 615 mmHg 85%
    16:00 +3°C° 0.2 mm 1 mps 615 mmHg 86%
    17:00 +2°C° 0.2 mm 1 mps 615 mmHg 87%
    18:00 +2°C° 0.2 mm 1 mps 615 mmHg 88%
    19:00 +1°C° 0.2 mm 1 mps 615 mmHg 89%
    20:00 +1°C° 0.2 mm 1 mps 615 mmHg 89%
    21:00 +1°C° 0.2 mm 1 mps 615 mmHg 90%
    22:00 +1°C° 0.1 mm 1 mps 615 mmHg 90%
    23:00 0°C° 0.1 mm 1 mps 615 mmHg 91%

    22 December, Saturday

    Time Temperature Precipitation Wind Pressure Humidity
    00:00 0°C° 0.1 mm 1 mps 615 mmHg 91%
    01:00 0°C° 0 mm 1 mps 615 mmHg 91%
    02:00 -1°C° 0 mm 1 mps 615 mmHg 91%
    03:00 -1°C° 0 mm 1 mps 615 mmHg 91%
    04:00 -1°C° 0 mm 1 mps 615 mmHg 91%
    05:00 -1°C° 0 mm 1 mps 615 mmHg 90%
    06:00 -1°C° 0 mm 1 mps 615 mmHg 90%
    07:00 -2°C° 0 mm 0 mps 615 mmHg 87%
    08:00 -1°C° 0 mm 0 mps 615 mmHg 85%
    09:00 -1°C° 0 mm 0 mps 616 mmHg 82%
    10:00 0°C° 0 mm 0 mps 615 mmHg 79%
    11:00 +1°C° 0 mm 1 mps 615 mmHg 77%
    12:00 +2°C° 0 mm 1 mps 615 mmHg 74%
    13:00 +2°C° 0 mm 1 mps 615 mmHg 73%
    14:00 +2°C° 0 mm 1 mps 615 mmHg 72%
    15:00 +3°C° 0 mm 1 mps 614 mmHg 71%
    16:00 +2°C° 0 mm 1 mps 614 mmHg 74%
    17:00 +1°C° 0 mm 1 mps 614 mmHg 77%
    18:00 -1°C° 0 mm 0 mps 614 mmHg 80%
    19:00 -1°C° 0 mm 0 mps 614 mmHg 80%
    20:00 0°C° 0 mm 1 mps 614 mmHg 81%
    21:00 0°C° 0 mm 1 mps 614 mmHg 82%
    22:00 0°C° 0 mm 1 mps 614 mmHg 82%
    23:00 0°C° 0 mm 1 mps 614 mmHg 83%

    23 December, Sunday

    Time Temperature Precipitation Wind Pressure Humidity
    00:00 0°C° 0 mm 1 mps 614 mmHg 83%
    01:00 0°C° 0 mm 1 mps 614 mmHg 84%
    02:00 0°C° 0 mm 1 mps 614 mmHg 84%
    03:00 -1°C° 0 mm 0 mps 614 mmHg 84%
    04:00 -1°C° 0 mm 0 mps 614 mmHg 84%
    05:00 -1°C° 0 mm 0 mps 614 mmHg 85%
    06:00 -2°C° 0 mm 0 mps 614 mmHg 85%
    07:00 -1°C° 0 mm 0 mps 614 mmHg 82%
    08:00 +1°C° 0 mm 1 mps 615 mmHg 79%
    09:00 +1°C° 0 mm 1 mps 615 mmHg 77%
    10:00 +2°C° 0 mm 1 mps 615 mmHg 74%
    11:00 +3°C° 0 mm 1 mps 615 mmHg 70%
    12:00 +3°C° 0 mm 1 mps 614 mmHg 67%
    13:00 +4°C° 0 mm 1 mps 614 mmHg 66%
    14:00 +4°C° 0 mm 1 mps 614 mmHg 64%
    15:00 +4°C° 0 mm 1 mps 614 mmHg 62%
    16:00 +3°C° 0 mm 1 mps 614 mmHg 65%
    17:00 +2°C° 0 mm 1 mps 613 mmHg 68%
    18:00 +1°C° 0 mm 1 mps 613 mmHg 71%
    19:00 -1°C° 0 mm 2 mps 613 mmHg 71%
    20:00 -1°C° 0 mm 2 mps 614 mmHg 72%
    21:00 -1°C° 0 mm 2 mps 614 mmHg 72%
    22:00 -1°C° 0 mm 2 mps 614 mmHg 73%
    23:00 -1°C° 0 mm 2 mps 613 mmHg 74%

    24 December, Monday

    Time Temperature Precipitation Wind Pressure Humidity
    00:00 -2°C° 0 mm 2 mps 613 mmHg 76%
    01:00 -2°C° 0 mm 2 mps 613 mmHg 76%
    02:00 -2°C° 0 mm 2 mps 613 mmHg 77%
    03:00 -2°C° 0 mm 2 mps 613 mmHg 77%
    04:00 -2°C° 0 mm 2 mps 613 mmHg 77%
    05:00 -2°C° 0 mm 2 mps 613 mmHg 77%
    06:00 -3°C° 0 mm 2 mps 613 mmHg 77%
    07:00 -2°C° 0 mm 2 mps 614 mmHg 73%
    08:00 -1°C° 0 mm 2 mps 614 mmHg 70%
    09:00 +1°C° 0 mm 2 mps 615 mmHg 67%
    10:00 +2°C° 0 mm 2 mps 614 mmHg 62%
    11:00 +3°C° 0 mm 2 mps 614 mmHg 57%
    12:00 +3°C° 0 mm 3 mps 614 mmHg 52%
    13:00 +4°C° 0 mm 2 mps 614 mmHg 51%
    14:00 +4°C° 0 mm 2 mps 614 mmHg 50%
    15:00 +4°C° 0 mm 2 mps 613 mmHg 49%
    16:00 +3°C° 0 mm 2 mps 613 mmHg 52%
    17:00 +2°C° 0 mm 2 mps 613 mmHg 56%
    18:00 +1°C° 0 mm 1 mps 613 mmHg 59%
    19:00 +1°C° 0 mm 1 mps 614 mmHg 59%
    20:00 +1°C° 0 mm 1 mps 614 mmHg 60%
    21:00 +1°C° 0 mm 1 mps 614 mmHg 60%
    22:00 -1°C° 0 mm 2 mps 614 mmHg 60%
    23:00 -1°C° 0 mm 2 mps 614 mmHg 61%
    Show more